FW4468 Gig Harbor WA US current weather conditions

sailwx.info

Wind from 117 at 0 knots gusting 2

Air temperature 22.2° C
Dewpoint 9.4° C

Last reported at 2020-Aug-09 19:01 UTC.
Time now 2020-Aug-09 19:44 UTC

Location: N 47°21' W 122°35'.
View on Google Maps.

See reports from other nearby stations

  
Tides and Currents Weather Stations Pressure Air Temp Water Temp Dewpoint Dewpoint Depression Visibility Wind Speed Wind Dir Waves Ship Positions
date/time (UTC)wind fromknots sea level pressurealtimeterstation pressurevisibilityair tempwater tempwave heightnotes
2020-Aug-09 19:01 117 0 gusting 2 22.2
2020-Aug-09 18:46 143 0 gusting 7 21.7
2020-Aug-09 18:30 325 0 gusting 4 21.7
2020-Aug-09 18:15 267 0 gusting 3 21.1
2020-Aug-09 18:00 186 20.6
2020-Aug-09 17:45 272 20.0
2020-Aug-09 17:30 325 18.9
2020-Aug-09 17:18 209 0 gusting 2 18.3
2020-Aug-09 17:02 248 17.2
2020-Aug-09 16:47 251 0 gusting 1 15.6
2020-Aug-09 16:31 275 14.4
2020-Aug-09 16:16 292 13.9
2020-Aug-09 16:01 251 13.3
2020-Aug-09 15:47 306 12.8
2020-Aug-09 15:31 009 12.2
2020-Aug-09 15:15 022 11.7
2020-Aug-09 15:01 017 11.1
2020-Aug-09 14:45 017 10.6
2020-Aug-09 14:31 017 10.0
2020-Aug-09 14:16 017 10.0
2020-Aug-09 14:01 017 10.0
2020-Aug-09 13:46 017 10.0
2020-Aug-09 13:31 017 10.0
2020-Aug-09 13:15 017 10.0
2020-Aug-09 13:01 017 10.0
2020-Aug-09 12:45 017 10.0
2020-Aug-09 12:30 017 10.0
2020-Aug-09 12:15 017 10.0
2020-Aug-09 12:00 017 10.0
2020-Aug-09 11:45 017 10.6
2020-Aug-09 11:30 017 10.6
2020-Aug-09 11:15 017 10.6
2020-Aug-09 11:00 017 10.6
2020-Aug-09 10:45 017 10.6
2020-Aug-09 10:30 017 10.6
2020-Aug-09 10:15 017 11.1
2020-Aug-09 10:00 017 11.1
2020-Aug-09 09:45 017 11.1
2020-Aug-09 09:30 017 11.7
2020-Aug-09 09:02 017 11.7
2020-Aug-09 08:47 017 12.2
2020-Aug-09 08:31 017 12.2
2020-Aug-09 08:17 017 12.2
2020-Aug-09 08:01 017 12.8
2020-Aug-09 07:47 017 12.8
2020-Aug-09 07:31 017 12.8
2020-Aug-09 07:16 017 13.3
2020-Aug-09 07:01 017 13.3
2020-Aug-09 06:47 017 13.9
2020-Aug-09 06:30 017 14.4
2020-Aug-09 06:16 017 14.4
2020-Aug-09 06:00 017 15.0
2020-Aug-09 05:46 017 15.0
2020-Aug-09 05:31 017 15.6
2020-Aug-09 05:15 017 15.6
2020-Aug-09 05:01 017 16.1
2020-Aug-09 04:47 017 16.1
2020-Aug-09 04:30 017 16.1
2020-Aug-09 04:16 017 16.1
2020-Aug-09 04:01 017 16.7
2020-Aug-09 03:45 017 16.7
2020-Aug-09 03:31 017 16.7
2020-Aug-09 03:15 017 17.2
2020-Aug-09 03:01 017 17.2
2020-Aug-09 02:45 017 17.8
2020-Aug-09 02:30 017 17.8
2020-Aug-09 02:16 200 18.3
2020-Aug-09 02:00 093 0 gusting 4 18.9
2020-Aug-09 01:45 343 19.4
2020-Aug-09 01:30 102 19.4
2020-Aug-09 01:16 344 0 gusting 3 20.0
2020-Aug-09 01:00 092 0 gusting 3 21.7
2020-Aug-09 00:46 138 0 gusting 4 21.7
2020-Aug-09 00:31 197 0 gusting 6 21.1
2020-Aug-09 00:15 150 0 gusting 3 21.1
2020-Aug-09 00:01 324 0 gusting 5 21.7
2020-Aug-08 23:45 079 0 gusting 5 21.1
2020-Aug-08 23:31 191 1 gusting 6 20.6
2020-Aug-08 23:15 169 20.0
2020-Aug-08 23:01 147 0 gusting 2 20.0
2020-Aug-08 22:45 347 0 gusting 3 20.0
2020-Aug-08 22:30 276 20.0
2020-Aug-08 22:15 238 20.6
2020-Aug-08 22:00 177 20.6
2020-Aug-08 21:45 148 0 gusting 6 20.0
2020-Aug-08 21:30 168 0 gusting 3 19.4
2020-Aug-08 21:15 157 0 gusting 1 19.4
2020-Aug-08 21:00 157 19.4
2020-Aug-08 20:45 117 0 gusting 2 19.4
2020-Aug-08 20:30 169 0 gusting 2 20.0
2020-Aug-08 20:15 327 0 gusting 2 19.4
2020-Aug-08 19:45 243 18.9
2020-Aug-08 19:32 355 0 gusting 2 18.9
2020-Aug-08 19:16 011 0 gusting 3 18.3
2020-Aug-08 19:02 039 0 gusting 3 18.3
2020-Aug-08 18:48 217 17.8
2020-Aug-08 18:32 328 17.2
2020-Aug-08 18:16 261 0 gusting 2 17.2
2020-Aug-08 18:01 275 0 gusting 3 17.2
2020-Aug-08 17:47 303 16.7
2020-Aug-08 17:31 269 16.1
2020-Aug-08 17:16 355 16.1
2020-Aug-08 17:01 360 15.6
2020-Aug-08 16:45 018 15.0
2020-Aug-08 16:31 005 15.0
2020-Aug-08 16:16 005 14.4
2020-Aug-08 16:01 005 15.0
2020-Aug-08 15:45 005 0 gusting 1 14.4
2020-Aug-08 15:31 342 14.4
2020-Aug-08 15:16 342 14.4
2020-Aug-08 15:00 342 14.4
2020-Aug-08 14:45 342 14.4
2020-Aug-08 14:30 338 13.9
2020-Aug-08 14:15 338 13.9
2020-Aug-08 14:00 338 13.9
2020-Aug-08 13:45 338 13.9
2020-Aug-08 13:30 338 13.9
2020-Aug-08 13:15 338 13.9
2020-Aug-08 13:00 338 13.9
2020-Aug-08 12:45 338 13.9
2020-Aug-08 12:30 338 13.9
2020-Aug-08 12:15 336 13.9
2020-Aug-08 12:00 336 13.9
2020-Aug-08 11:45 336 13.9
2020-Aug-08 11:30 336 13.9
2020-Aug-08 11:15 336 14.4
2020-Aug-08 11:00 336 14.4
2020-Aug-08 10:47 336 14.4
2020-Aug-08 10:32 335 14.4
2020-Aug-08 10:16 335 14.4
2020-Aug-08 10:02 335 14.4
2020-Aug-08 09:47 335 14.4
2020-Aug-08 09:31 335 14.4
2020-Aug-08 09:17 019 14.4
2020-Aug-08 09:01 019 14.4
2020-Aug-08 08:46 019 15.0
2020-Aug-08 08:30 019 15.0
2020-Aug-08 08:15 019 15.0
2020-Aug-08 08:01 093 15.0
2020-Aug-08 07:46 093 15.0
2020-Aug-08 07:31 093 15.0
2020-Aug-08 07:16 093 15.0
2020-Aug-08 07:00 094 15.0
2020-Aug-08 06:45 094 15.0
2020-Aug-08 06:31 094 15.0
2020-Aug-08 06:16 093 15.0
2020-Aug-08 06:01 094 15.6
2020-Aug-08 05:45 093 15.6
2020-Aug-08 05:31 092 15.6
2020-Aug-08 05:15 092 16.1
2020-Aug-08 05:00 092 16.1
2020-Aug-08 04:46 096 16.7
2020-Aug-08 04:31 096 16.7
2020-Aug-08 04:15 096 17.2
2020-Aug-08 04:00 088 17.8
2020-Aug-08 03:46 088 18.3
2020-Aug-08 03:31 085 18.9
2020-Aug-08 03:15 123 20.0
2020-Aug-08 03:00 209 0 gusting 4 20.6
2020-Aug-08 02:45 223 1 gusting 4 21.1
2020-Aug-08 02:31 194 0 gusting 4 21.7
2020-Aug-08 02:16 285 21.7
2020-Aug-08 02:00 213 22.2
2020-Aug-08 01:45 207 22.2
2020-Aug-08 01:30 200 0 gusting 2 22.2
2020-Aug-08 01:16 201 22.8
2020-Aug-08 01:00 198 22.8
2020-Aug-08 00:46 221 0 gusting 4 23.3
2020-Aug-08 00:30 144 1 gusting 7 23.9
2020-Aug-08 00:15 178 0 gusting 6 24.4
2020-Aug-08 00:00 282 0 gusting 3 24.4
2020-Aug-07 23:46 259 0 gusting 6 23.9
2020-Aug-07 23:30 165 2 gusting 6 25.0
2020-Aug-07 23:16 299 0 gusting 6 24.4
2020-Aug-07 23:00 206 0 gusting 3 24.4
2020-Aug-07 22:45 196 1 gusting 6 24.4
2020-Aug-07 22:30 200 3 gusting 8 23.9
2020-Aug-07 22:16 236 1 gusting 6 23.3
2020-Aug-07 22:00 051 1 gusting 6 23.9
2020-Aug-07 21:45 240 23.3
2020-Aug-07 21:30 279 4 gusting 7 23.3
2020-Aug-07 21:16 298 2 gusting 6 23.3
2020-Aug-07 21:01 178 2 gusting 8 22.8
2020-Aug-07 20:46 235 3 gusting 7 23.3
2020-Aug-07 20:32 188 0 gusting 6 22.8
2020-Aug-07 20:16 238 1 gusting 9 22.2
2020-Aug-07 20:01 178 2 gusting 6 22.8
2020-Aug-07 19:47 215 0 gusting 4 22.2
2020-Aug-07 19:31 063 22.2
2020-Aug-07 19:17 317 22.2
2020-Aug-07 19:01 238 21.1